Previsão horária em Juye

Hoje, 22 Junho, Terça-feira

Tempo Temperatura Precipitação Vento Pressão Humidade
00:00 +30°C° 0 mm 3 m/s 749 mmHg 42%
01:00 +29°C° 0 mm 3 m/s 749 mmHg 46%
02:00 +29°C° 0 mm 2 m/s 749 mmHg 50%
03:00 +28°C° 0 mm 2 m/s 750 mmHg 51%
04:00 +28°C° 0 mm 1 m/s 750 mmHg 53%
05:00 +28°C° 0 mm 1 m/s 750 mmHg 54%
06:00 +29°C° 0 mm 1 m/s 751 mmHg 50%
07:00 +31°C° 0 mm 2 m/s 751 mmHg 46%
08:00 +32°C° 0 mm 2 m/s 752 mmHg 42%
09:00 +35°C° 0 mm 2 m/s 751 mmHg 37%
10:00 +36°C° 0 mm 1 m/s 751 mmHg 32%
11:00 +39°C° 0 mm 1 m/s 751 mmHg 27%
12:00 +39°C° 0 mm 2 m/s 751 mmHg 25%
13:00 +40°C° 0 mm 2 m/s 750 mmHg 23%
14:00 +42°C° 0 mm 3 m/s 750 mmHg 20%
15:00 +42°C° 0 mm 3 m/s 749 mmHg 20%
16:00 +42°C° 0 mm 3 m/s 749 mmHg 20%
17:00 +42°C° 0 mm 3 m/s 749 mmHg 20%
18:00 +39°C° 0 mm 3 m/s 749 mmHg 23%
19:00 +38°C° 0 mm 2 m/s 749 mmHg 26%
20:00 +36°C° 0 mm 2 m/s 750 mmHg 30%
21:00 +34°C° 0 mm 3 m/s 750 mmHg 35%
22:00 +33°C° 0 mm 5 m/s 751 mmHg 41%
23:00 +32°C° 0 mm 6 m/s 751 mmHg 46%

Amanhã, 23 Junho, Quarta-feira

Tempo Temperatura Precipitação Vento Pressão Humidade
00:00 +30°C° 0 mm 5 m/s 751 mmHg 48%
01:00 +29°C° 0 mm 4 m/s 751 mmHg 50%
02:00 +29°C° 0 mm 3 m/s 751 mmHg 52%
03:00 +28°C° 0 mm 3 m/s 752 mmHg 50%
04:00 +28°C° 0 mm 3 m/s 752 mmHg 49%
05:00 +27°C° 0 mm 2 m/s 752 mmHg 48%
06:00 +29°C° 0 mm 2 m/s 752 mmHg 44%
07:00 +31°C° 0 mm 3 m/s 753 mmHg 40%
08:00 +33°C° 0 mm 3 m/s 753 mmHg 36%
09:00 +35°C° 0 mm 3 m/s 753 mmHg 32%
10:00 +37°C° 0 mm 3 m/s 753 mmHg 28%
11:00 +39°C° 0 mm 3 m/s 752 mmHg 24%
12:00 +39°C° 0 mm 3 m/s 752 mmHg 23%
13:00 +40°C° 0 mm 3 m/s 751 mmHg 22%
14:00 +42°C° 0 mm 3 m/s 751 mmHg 21%
15:00 +42°C° 0 mm 4 m/s 751 mmHg 21%
16:00 +42°C° 0 mm 4 m/s 750 mmHg 21%
17:00 +41°C° 0 mm 5 m/s 750 mmHg 21%
18:00 +40°C° 0 mm 4 m/s 750 mmHg 24%
19:00 +37°C° 0 mm 4 m/s 750 mmHg 27%
20:00 +36°C° 0 mm 3 m/s 751 mmHg 30%
21:00 +35°C° 0 mm 4 m/s 751 mmHg 33%
22:00 +33°C° 0 mm 4 m/s 751 mmHg 36%
23:00 +32°C° 0 mm 5 m/s 751 mmHg 40%

Depois de amanhã, 24 Junho, Quinta-feira

Tempo Temperatura Precipitação Vento Pressão Humidade
00:00 +30°C° 0 mm 4 m/s 751 mmHg 42%
01:00 +30°C° 0 mm 4 m/s 751 mmHg 45%
02:00 +29°C° 0 mm 3 m/s 751 mmHg 47%
03:00 +28°C° 0 mm 3 m/s 751 mmHg 49%
04:00 +27°C° 0 mm 3 m/s 751 mmHg 51%
05:00 +27°C° 0 mm 3 m/s 751 mmHg 53%
06:00 +28°C° 0 mm 3 m/s 752 mmHg 50%
07:00 +30°C° 0 mm 3 m/s 752 mmHg 46%
08:00 +32°C° 0 mm 4 m/s 752 mmHg 42%
09:00 +34°C° 0 mm 4 m/s 752 mmHg 38%
10:00 +35°C° 0 mm 4 m/s 751 mmHg 33%
11:00 +37°C° 0 mm 5 m/s 751 mmHg 29%
12:00 +39°C° 0 mm 5 m/s 750 mmHg 27%
13:00 +40°C° 0 mm 5 m/s 750 mmHg 25%
14:00 +41°C° 0 mm 5 m/s 749 mmHg 23%
15:00 +41°C° 0 mm 5 m/s 749 mmHg 22%
16:00 +41°C° 0 mm 6 m/s 748 mmHg 22%
17:00 +40°C° 0 mm 6 m/s 748 mmHg 21%
18:00 +39°C° 0 mm 6 m/s 748 mmHg 23%
19:00 +37°C° 0 mm 5 m/s 748 mmHg 26%
20:00 +35°C° 0 mm 5 m/s 748 mmHg 28%
21:00 +34°C° 0 mm 6 m/s 749 mmHg 32%
22:00 +34°C° 0 mm 6 m/s 749 mmHg 36%
23:00 +33°C° 0 mm 6 m/s 749 mmHg 39%

25 Junho, Sexta-feira

Tempo Temperatura Precipitação Vento Pressão Humidade
00:00 +32°C° 0 mm 6 m/s 749 mmHg 42%
01:00 +30°C° 0 mm 6 m/s 749 mmHg 45%
02:00 +29°C° 0 mm 6 m/s 749 mmHg 48%
03:00 +28°C° 0 mm 5 m/s 749 mmHg 50%
04:00 +28°C° 0 mm 4 m/s 749 mmHg 53%
05:00 +27°C° 0 mm 3 m/s 749 mmHg 55%
06:00 +27°C° 0 mm 3 m/s 749 mmHg 53%
07:00 +28°C° 0 mm 4 m/s 750 mmHg 51%
08:00 +28°C° 0 mm 4 m/s 750 mmHg 49%
09:00 +30°C° 0 mm 3 m/s 750 mmHg 46%
10:00 +31°C° 0 mm 3 m/s 749 mmHg 42%
11:00 +34°C° 0 mm 2 m/s 749 mmHg 38%
12:00 +34°C° 0 mm 2 m/s 749 mmHg 37%
13:00 +34°C° 0 mm 2 m/s 749 mmHg 37%
14:00 +33°C° 0 mm 1 m/s 748 mmHg 37%
15:00 +33°C° 0 mm 1 m/s 748 mmHg 39%
16:00 +32°C° 0 mm 1 m/s 748 mmHg 41%
17:00 +29°C° 0 mm 0 m/s 748 mmHg 43%
18:00 +31°C° 0 mm 1 m/s 748 mmHg 44%
19:00 +30°C° 0 mm 2 m/s 748 mmHg 46%
20:00 +30°C° 0 mm 2 m/s 749 mmHg 48%
21:00 +29°C° 0 mm 3 m/s 749 mmHg 52%
22:00 +28°C° 0 mm 3 m/s 749 mmHg 56%
23:00 +27°C° 0 mm 3 m/s 749 mmHg 61%

26 Junho, Sábado

Tempo Temperatura Precipitação Vento Pressão Humidade
00:00 +27°C° 0 mm 3 m/s 749 mmHg 64%
01:00 +26°C° 0 mm 3 m/s 749 mmHg 68%
02:00 +26°C° 0 mm 3 m/s 749 mmHg 72%
03:00 +26°C° 0 mm 3 m/s 749 mmHg 74%
04:00 +25°C° 0 mm 3 m/s 749 mmHg 75%
05:00 +25°C° 0 mm 3 m/s 749 mmHg 77%
06:00 +26°C° 0 mm 3 m/s 750 mmHg 72%
07:00 +27°C° 0 mm 3 m/s 750 mmHg 66%
08:00 +28°C° 0 mm 4 m/s 750 mmHg 60%
09:00 +30°C° 0 mm 4 m/s 750 mmHg 54%
10:00 +33°C° 0 mm 4 m/s 750 mmHg 48%
11:00 +34°C° 0 mm 4 m/s 749 mmHg 42%
12:00 +36°C° 0 mm 4 m/s 749 mmHg 38%
13:00 +37°C° 0 mm 4 m/s 748 mmHg 35%
14:00 +38°C° 0 mm 4 m/s 748 mmHg 31%
15:00 +37°C° 0 mm 5 m/s 748 mmHg 34%
16:00 +36°C° 0 mm 6 m/s 748 mmHg 37%
17:00 +35°C° 0 mm 7 m/s 747 mmHg 40%
18:00 +34°C° 0 mm 7 m/s 748 mmHg 45%
19:00 +32°C° 0 mm 7 m/s 748 mmHg 50%
20:00 +29°C° 0 mm 6 m/s 749 mmHg 55%
21:00 +28°C° 0 mm 6 m/s 749 mmHg 58%
22:00 +27°C° 0 mm 5 m/s 749 mmHg 62%
23:00 +26°C° 0 mm 5 m/s 750 mmHg 65%

27 Junho, Domingo

Tempo Temperatura Precipitação Vento Pressão Humidade
00:00 +26°C° 0 mm 4 m/s 750 mmHg 68%
01:00 +25°C° 0 mm 4 m/s 749 mmHg 70%
02:00 +23°C° 0 mm 4 m/s 749 mmHg 73%
03:00 +24°C° 0 mm 3 m/s 749 mmHg 75%
04:00 +23°C° 0 mm 2 m/s 749 mmHg 78%
05:00 +23°C° 0 mm 1 m/s 750 mmHg 80%
06:00 +24°C° 0 mm 2 m/s 750 mmHg 75%
07:00 +25°C° 0 mm 2 m/s 750 mmHg 69%
08:00 +27°C° 0 mm 3 m/s 750 mmHg 64%
09:00 +29°C° 0 mm 3 m/s 750 mmHg 56%
10:00 +31°C° 0 mm 3 m/s 750 mmHg 49%
11:00 +34°C° 0 mm 4 m/s 749 mmHg 41%
12:00 +35°C° 0 mm 4 m/s 749 mmHg 38%
13:00 +36°C° 0 mm 4 m/s 748 mmHg 35%
14:00 +38°C° 0 mm 4 m/s 748 mmHg 31%
15:00 +38°C° 0 mm 4 m/s 747 mmHg 31%
16:00 +39°C° 0 mm 5 m/s 746 mmHg 30%
17:00 +39°C° 0 mm 5 m/s 746 mmHg 30%
18:00 +36°C° 0 mm 5 m/s 746 mmHg 33%
19:00 +35°C° 0 mm 4 m/s 747 mmHg 35%
20:00 +34°C° 0 mm 4 m/s 747 mmHg 38%
21:00 +32°C° 0 mm 4 m/s 748 mmHg 43%
22:00 +30°C° 0 mm 4 m/s 748 mmHg 48%
23:00 +29°C° 0 mm 5 m/s 749 mmHg 53%
Mostrar mais

Necessitamos do seu Consentimento

A Meteoprog e os seus Fornecedores de Serviços podem armazenar e aceder a dados pessoais como cookies, identificadores do dispositivo ou outras tecnologias semelhantes existentes no seu dispositivo e processar estes dados para personalizar conteúdos e anúncios, assim como funcionalidades nas redes sociais e análise de tráfego.

  • Armazenar e/ou aceder a informações no seu dispositivo

    Os cookies, identificadores do dispositivo ou outras informações podem ser armazenados ou acedidos no seu dispositivo, para os fins acima indicados.

  • Anúncios e conteúdos personalizados, medição de anúncios e conteúdos, dados sobre o público-alvo e desenvolvimento de produtos

    Os anúncios e os conteúdos podem ser personalizados com base num perfil. Podem ser adicionados dados adicionais para uma maior personalização dos anúncios e dos conteúdos. A eficácia dos anúncios e dos conteúdos pode ser medida. Podem ser obtidas informações sobre o público que visualizou os anúncios e os conteúdos. Estes dados podem ser usados para desenvolver ou melhorar sistemas, softwares ou a experiência do utilizador.

Ao clicar em "Eu concordo”, permitirá o uso de cookies, identificadores do dispositivo e web beacons mencionados ou outras tecnologias semelhantes. As configurações do navegador do seu dispositivo podem ser alteradas.

Para certos fins, podem ser invocados interesses legítimos ao invés de consentimento. Pode ler mais informação sobre este assunto na nossa Política de Privacidade e Cookies.